Weather History for Billings, MT

Change the Weather History Date:

Saturday, March 17, 2012

  Actual Average Record
Temperature  
Mean Temperature 58 °F 38 °F  
Max Temperature 73 °F 49 °F 73 °F (2007)
Min Temperature 43 °F 27 °F -9 °F (1943)
Degree Days  
Heating Degree Days 7 27  
Month to date heating degree days 324 495  
Since 1 July heating degree days 4832 5460  
Cooling Degree Days 0 0  
Month to date cooling degree days 0 0  
Year to date cooling degree days 0 0  
Growing Degree Days 7 (Base 50)    
Moisture  
Dew Point 30 °F    
Average Humidity 42    
Maximum Humidity 67    
Minimum Humidity 16    
Precipitation  
Precipitation 0.00 in 0.03 in 0.72 in (1981)
Month to date precipitation 0.10 0.49  
Year to date precipitation 0.95 1.45  
Snow  
Snow 0.00 in 0.30 in 7.30 in (1981)
Month to date snowfall 1.2 5.5  
Since 1 July snowfall 30.0 40.0  
Snow Depth 0.00 in    
Sea Level Pressure  
Sea Level Pressure 29.43 in    
Wind  
Wind Speed 12 mph (SE)    
Max Wind Speed 29 mph    
Max Gust Speed 38 mph    
Visibility 10 miles    
Events      
T = Trace of Precipitation, MM = Missing Value Source: NWS Daily Summary

Daily Weather History Graph

Daily Weather History Graph

Search for Another Location

Airport:

Trip Planner

Search our weather history database for the weather conditions in past years. The results will help you decide how hot, cold, wet, or windy it might be!

Date:

Astronomy

Mar. 17, 2012 Rise Set
Actual Time 7:21 AM MDT 7:23 PM MDT
Civil Twilight 6:52 AM MDT 7:53 PM MDT
Nautical Twilight 6:17 AM MDT 8:28 PM MDT
Astronomical Twilight 5:42 AM MDT 9:03 PM MDT
Moon 4:39 AM MDT (3/17) 2:37 PM MDT (3/17)
Length of Visible Light 13h 00m
Length of Day
12h 01m
Waning Crescent, 22% of the Moon is Illuminated
Mar 17
Waning Crescent
Mar 22
New
Mar 30
First Quarter
Apr 6
Full
Apr 13
Last Quarter

Hourly Weather History & Observations

Time (MDT) Temp. Windchill Dew Point Humidity Pressure Visibility Wind Dir Wind Speed Gust Speed Precip Events Conditions
12:53 AM 48.0 °F - 32.0 °F 54% 29.64 in 10.0 mi South 5.8 mph - N/A   Mostly Cloudy
1:53 AM 43.0 °F 39.5 °F 32.0 °F 65% 29.62 in 10.0 mi East 5.8 mph - N/A   Scattered Clouds
2:53 AM 44.1 °F 40.1 °F 33.1 °F 65% 29.61 in 10.0 mi ENE 6.9 mph - N/A   Overcast
3:53 AM 45.0 °F 41.2 °F 32.0 °F 60% 29.60 in 10.0 mi ENE 6.9 mph - N/A   Scattered Clouds
4:53 AM 43.0 °F 38.8 °F 32.0 °F 65% 29.57 in 10.0 mi ENE 6.9 mph - N/A   Overcast
5:53 AM 44.1 °F 40.1 °F 30.9 °F 60% 29.58 in 10.0 mi NE 6.9 mph - N/A   Overcast
6:53 AM 48.0 °F - 30.0 °F 50% 29.57 in 10.0 mi East 13.8 mph 25.3 mph N/A   Mostly Cloudy
7:53 AM 43.0 °F 38.8 °F 30.9 °F 62% 29.57 in 10.0 mi Variable 6.9 mph - N/A   Mostly Cloudy
8:53 AM 45.0 °F 41.2 °F 32.0 °F 60% 29.55 in 10.0 mi ENE 6.9 mph - N/A   Mostly Cloudy
9:53 AM 50.0 °F - 33.1 °F 52% 29.51 in 10.0 mi ESE 6.9 mph - N/A   Scattered Clouds
10:53 AM 55.0 °F - 35.1 °F 47% 29.46 in 10.0 mi East 16.1 mph - N/A   Partly Cloudy
11:53 AM 57.0 °F - 35.1 °F 44% 29.42 in 10.0 mi East 8.1 mph - N/A   Partly Cloudy
12:53 PM 61.0 °F - 35.1 °F 38% 29.37 in 10.0 mi East 10.4 mph - N/A   Partly Cloudy
1:53 PM 66.9 °F - 33.1 °F 28% 29.34 in 10.0 mi SE 12.7 mph 16.1 mph N/A   Partly Cloudy
2:53 PM 71.1 °F - 28.9 °F 21% 29.29 in 10.0 mi SW 15.0 mph 19.6 mph N/A   Mostly Cloudy
3:53 PM 71.1 °F - 27.0 °F 19% 29.26 in 10.0 mi South 11.5 mph 21.9 mph N/A   Partly Cloudy
4:53 PM 71.1 °F - 26.1 °F 19% 29.25 in 10.0 mi South 19.6 mph 28.8 mph N/A   Partly Cloudy
5:53 PM 71.1 °F - 26.1 °F 19% 29.25 in 10.0 mi South 20.7 mph 26.5 mph N/A   Partly Cloudy
6:53 PM 69.1 °F - 21.0 °F 16% 29.25 in 10.0 mi SSW 15.0 mph 23.0 mph N/A   Partly Cloudy
7:53 PM 66.0 °F - 21.9 °F 19% 29.28 in 10.0 mi SSW 16.1 mph - N/A   Partly Cloudy
8:53 PM 62.1 °F - 24.1 °F 23% 29.30 in 10.0 mi SSW 15.0 mph - N/A   Clear
9:53 PM 62.1 °F - 24.1 °F 23% 29.30 in 10.0 mi West 17.3 mph - N/A   Clear
10:53 PM 55.9 °F - 24.1 °F 29% 29.32 in 10.0 mi ENE 5.8 mph - N/A   Clear
11:53 PM 52.0 °F - 32.0 °F 47% 29.35 in 10.0 mi NNW 13.8 mph - N/A   Clear